Location: Unspecified
(0.0000°N, 0.0000°E)
Time: 07:25:23
(UTC+00:00)

Vanguard 2 Rocket - Pass Details

Date: 08 December 2017
Orbit: 556 x 3326 km, 32.9° (Epoch: 15 January)

Event Time Altitude Azimuth Distance (km) Brightness Sun altitude
Rises 07:27:03 0° 277° (W) 5,226 10.2 21.8°
Reaches altitude 10° 07:32:31 10° 260° (W) 3,621 9.6 23.1°
Maximum altitude 07:37:50 17° 223° (SW) 2,506 9.1 24.3°
Drops below altitude 10° 07:41:49 10° 182° (S) 2,576 9.6 25.2°
Sets 07:44:49 0° 160° (SSE) 3,212 10.4 25.9°
